Reflectivity
-20 -20 -20 -20 -20 -20 -20 -20 -20 -20 -20 -20 -20 -20 -20 -20 -20 -20 -20 -20 -20 -20
-20 -20 -20 -20 -20 -20 -20 -20 -20 -20 -20 -20 -20 -20 -20 -20 -20 -20 -20 -20 -20 -20
-20 -20 -20 -20 -20 -20 -20 -20 -20 -20 -20 -20 -20 -20 -20 -20 -20 -20 -20 -20 -20 -20
-20 -20 -20 -20 -20 -20 -20 -20 -20 -20 -20 -20 -20 -20 -20 -20 -20 -20 -20 -20 -20 -20
-20 -20 -20 -20 -20 -20 -20 -20 -20 -20 -20 -20 -20 -20 -20 -20 -20 -20 -20 -20 -20 -20
-20 -20 -20 -20 -20 -20 -20 -20 -20 -20 -20 -20 -20 -20 -20 -20 -20 -20 -20 -20 -20 -20
-20 -20 -20 -20 -20 -20 -20 -20 -20 -20 -20 -20 -20 -20 -20 -20 -20 -20 -20 -20 -20 -20
-20 -20 -20 -20 -20 -20 -20 -20 -20 -20 -20 -20 -20 -20 -20 -20 -20 -20 -20 -20 -20 -20
-20 -20 -20 -20 -20 -20 -20 -20 -20 -20 -20 -20 -20 -20 -20 -20 -20 -20 -20 -20 -20 -20
-20 -20 -20 -20 -20 -20 -20 -20 -20 -20 -20 -20 -20 -20 -20 -20 -20 -20 -20 -20 -20 -20
-20 -20 -20 -20 -20 -20 -20 -20 -20 -20 -20 -20 -20 -20 -20 -20 -20 -20 -20 -20 -20 -20
-20 -20 -20 -20 -20 -20 -20 -20 -20 6 -17 -20 -20 -20 -20 -20 -20 -20 -20 -20 -20 -20
-20 -20 -20 -20 -20 -20 -20 -20 -20 -3 19 -20 -20 -20 -20 -20 -20 -20 -20 -20 -20 -20
-20 -20 -20 -20 -20 -20 -20 -20 -20 1 28 -19 -20 -20 -20 -20 -20 -20 -20 -20 -20 -20
Wind_Speed
9 6 6 6 4 3 3 3 4 5 6 7 7 6 6 5 5 6 5 6 5 4
10 11 8 7 6 5 4 4 3 5 5 5 5 6 6 4 5 6 5 5 5 5
12 11 9 8 8 7 6 5 5 5 5 5 5 5 6 5 5 7 4 4 7 6
12 11 11 11 10 9 7 6 5 5 5 5 5 5 5 5 4 6 5 5 5 6
13 12 12 12 12 10 9 8 7 6 6 6 5 5 5 5 4 4 5 5 5 5
13 13 13 13 12 10 9 9 8 7 7 7 6 6 6 5 5 4 4 4 5 6
13 13 13 12 12 11 10 10 8 8 7 6 6 6 6 6 6 6 4 4 4 4
12 12 12 12 11 10 10 9 9 8 7 7 7 6 7 6 6 6 7 5 5 4
10 11 12 12 11 10 11 10 9 9 9 8 6 9 7 7 7 5 6 6 6 5
10 11 12 12 12 12 12 10 11 9 8 8 7 10 10 10 7 6 5 4 5 6
9 11 11 11 12 12 10 11 9 8 8 7 7 11 10 10 6 6 6 5 5 6
9 10 10 12 13 13 11 10 9 8 9 9 7 11 12 9 6 6 7 7 6 6
9 10 11 12 12 11 10 9 5 6 7 10 8 11 12 10 5 7 5 6 6 10
9 9 10 9 9 9 9 7 6 6 8 9 9 8 13 13 7 6 5 5 5 5
Wind_Direction
230 233 237 243 255 276 285 304 314 319 325 331 328 331 332 323 332 327 334 332 332 325
226 226 230 230 232 238 243 255 284 294 295 303 306 318 322 316 331 325 339 334 330 332
227 226 227 232 232 236 243 240 263 284 293 297 300 307 316 319 335 329 341 349 338 342
231 226 224 226 223 225 231 236 247 260 269 277 286 292 296 309 319 325 334 342 348 341
231 223 224 227 226 221 222 224 229 242 251 257 264 272 276 289 309 309 322 333 333 338
236 232 231 230 229 224 224 227 226 229 240 245 249 258 265 273 277 279 298 318 325 331
239 233 232 229 225 219 217 224 224 228 236 238 243 247 254 264 277 279 276 283 301 312
246 243 236 234 225 216 215 216 219 226 225 231 233 238 240 260 267 271 283 287 280 292
245 244 238 231 227 215 214 214 214 213 223 222 231 236 224 250 277 277 274 288 300 309
249 241 235 229 225 218 214 210 214 214 218 225 229 232 234 242 257 266 275 280 293 299
250 250 239 229 229 225 217 215 213 210 212 219 231 234 233 241 250 257 268 268 266 280
256 252 240 230 223 221 213 207 202 205 209 209 220 217 227 231 243 248 252 259 262 264
262 252 245 237 224 219 214 204 177 195 219 219 215 218 218 225 232 248 248 258 256 264
273 262 251 247 223 212 204 174 176 192 216 217 220 228 218 220 229 242 255 257 262 256